This is the latest recevied weather packets stored in our database for station/object KI7CSN-13. If no packets are shown the sender has not sent any weather packets the latest 10 day(s).
| Time | Temp. | Humidity | Pressure | Rain* | Wind** | Luminosity | Snow |
|---|---|---|---|---|---|---|---|
| 1778076158 | 9.44° C | 59% | 984.3 hPa | 0 mm | - | - | - |
| 1778075858 | 9.44° C | 59% | 984.2 hPa | 0 mm | - | - | - |
| 1778075558 | 9.44° C | 61% | 984.1 hPa | 0 mm | - | - | - |
| 1778075258 | 8.89° C | 60% | 984 hPa | 0 mm | - | - | - |
| 1778074958 | 8.89° C | 61% | 984 hPa | 0 mm | - | - | - |
| 1778074658 | 8.89° C | 62% | 983.9 hPa | 0 mm | - | - | - |
| 1778074358 | 8.33° C | 63% | 983.8 hPa | 0 mm | - | - | - |
| 1778074058 | 8.33° C | 63% | 983.8 hPa | 0 mm | - | - | - |
| 1778073758 | 7.78° C | 66% | 983.9 hPa | 0 mm | - | - | - |
| 1778073458 | 7.22° C | 66% | 983.8 hPa | 0 mm | - | - | - |
| 1778073158 | 6.67° C | 68% | 983.5 hPa | 0 mm | - | - | - |
| 1778072858 | 6.67° C | 67% | 983.5 hPa | 0 mm | - | - | - |
| 1778072558 | 6.67° C | 64% | 983.4 hPa | 0 mm | - | - | - |
| 1778072258 | 6.67° C | 68% | 983.4 hPa | 0 mm | - | - | - |
| 1778071958 | 6.67° C | 69% | 983.3 hPa | 0 mm | - | - | - |
| 1778071658 | 6.11° C | 69% | 983.3 hPa | 0 mm | - | - | - |
| 1778071358 | 6.11° C | 66% | 983.3 hPa | 0 mm | - | - | - |
| 1778071058 | 6.67° C | 68% | 983.3 hPa | 0 mm | - | - | - |
| 1778070758 | 6.67° C | 67% | 983.2 hPa | 0 mm | - | - | - |
| 1778070458 | 6.11° C | 64% | 983.1 hPa | 0 mm | - | - | - |
| 1778070158 | 6.67° C | 66% | 983.2 hPa | 0 mm | - | - | - |
| 1778069858 | 7.78° C | 62% | 983.1 hPa | 0 mm | - | - | - |
| 1778069558 | 7.78° C | 64% | 983.1 hPa | 0 mm | - | - | - |
| 1778069258 | 7.78° C | 64% | 983.2 hPa | 0 mm | - | - | - |
| 1778068958 | 7.78° C | 63% | 983.1 hPa | 0 mm | - | - | - |
* Rain latest hour (hover to see other rain measurements)
** Current wind speed in m/s (hover to see current wind gust speed)